Regional Weather Roundup
Issued by NWS

Current Version | Previous Version | Text Only | Print | Product List | Glossary On
Versions: 1 2 3 4 5 6 7 8 9 10 11 12 13 14 15 16 17 18 19 20 21 22 23 24 25 26 27 28 29 30 31 32 33 34 35 36 37 38 39 40 41 42 43 44 45 46 47 48 49 50
000
ASUS45 KABQ 272010
RWRNM
NEW MEXICO REGIONAL WEATHER ROUNDUP
NATIONAL WEATHER SERVICE ALBUQUERQUE NM
200 PM MDT MON JUN 27 2016

NOTE: "FAIR" MEANS FEW OR NO CLOUDS BELOW 12,000 FEET AGL WITH NO
       SIGNIFICANT WEATHER OR OBSTRUCTIONS TO VISION.

      THIS PRODUCT IS RELEASED AS TWO VERSIONS.  ONE VERSION NEAR
      THE TOP OF THE HOUR CONTAINING PRELIMINARY DATA FROM ALBUQUERQUE
      AND OTHER STATIONS.  A FINAL VERSION WITH ADDITIONAL DATA IS
      ISSUED ABOUT 10 MINUTES AFTER THE HOUR.

NMZ501-503-504-510>518-272100-
NORTHWEST PLATEAU/NORTHCENTRAL MOUNTAINS

CITY           SKY/WX    TMP DP  RH WIND       PRES   REMARKS
FARMINGTON     FAIR      92  37  14 MISG      30.25F
LOS ALAMOS     FAIR      82  40  22 S9G17     30.43F
SANTA FE       FAIR      86  44  23 VRB6G20   30.35F
TAOS           FAIR      86  36  16 SE10G17   30.40F
ANGEL FIRE     FAIR      76  34  21 SE9G16    30.52F

$$
NMZ402-403-502-505>509-272100-
WESTCENTRAL MOUNTAINS/SOUTHWEST MOUNTAINS

CITY           SKY/WX    TMP DP  RH WIND       PRES   REMARKS
GALLUP         FAIR      88  40  18 VRB5      30.33F
GRANTS         FAIR      85  43  22 SE12G18   30.38F
SILVER CITY    CLOUDY    71  57  59 N24G30    30.27S

$$
NMZ407-409-411-412-272100-
SOUTHERN DESERTS

CITY           SKY/WX    TMP DP  RH WIND       PRES   REMARKS
LORDSBURG      PTSUNNY   81  57  44 MISG      30.18F
DEMING         FAIR      90  55  30 NE8       30.16F
LAS CRUCES     FAIR      90  51  26 E10G16    30.19F
HOLLOMAN AFB   FAIR      89  55  31 VRB3      30.15F
ALAMOGORDO     FAIR      86  55  35 SE7       30.19F
T OR C         FAIR      89  50  26 NE13      30.21F

$$
NMZ519>523-272100-
CENTRAL VALLEYS/CENTRAL HIGHLANDS

CITY           SKY/WX    TMP DP  RH WIND       PRES   REMARKS
ALBUQUERQUE    PTSUNNY   86  51  29 VRB5      30.29F
DOUBLE EAGLE   PTSUNNY   88  48  25 E9        30.34F
MORIARTY ARPT  FAIR      83  46  26 E10G17    30.38F
CLINES CORNERS FAIR      76  53  44 SE9       30.43F
BELEN          FAIR      87  46  24 NW3       30.28F
SOCORRO        FAIR      87  51  29 CALM      30.24F

$$
NMZ524>526-539-540-272100-
SOUTHCENTRAL MOUNTAINS

CITY           SKY/WX    TMP DP  RH WIND       PRES   REMARKS
RUIDOSO        LGT RAIN  75  50  41 E16G24    30.43F

$$
NMZ527>531-272100-
NORTHEAST HIGHLANDS/NORTHEAST PLAINS

CITY           SKY/WX    TMP DP  RH WIND       PRES   REMARKS
LAS VEGAS      FAIR      81  44  27 E14       30.42F
RATON          FAIR      83  44  25 VRB5      30.36F
CLAYTON        FAIR      86  60  41 S13G21    30.30F

$$
NMZ532>537-272100-
EASTCENTRAL PLAINS

CITY           SKY/WX    TMP DP  RH WIND       PRES   REMARKS
TUCUMCARI      FAIR      88  57  34 S12G18    30.24F
CANNON AFB     FAIR      83  61  47 E9G18     30.27F
CLOVIS AIRPORT FAIR      82  63  51 E10       30.28F

$$
NMZ028-029-538-272100-
SOUTHEAST PLAINS

CITY           SKY/WX    TMP DP  RH WIND       PRES   REMARKS
ROSWELL        FAIR      86  58  38 E9        30.21F
ARTESIA        PTSUNNY   84  63  48 VRB6G13   30.20F
CARLSBAD       LGT RAIN  74  67  78 N8        30.18F
HOBBS          PTSUNNY   81  63  54 E10G18    30.22F


$$



USA.gov is the U.S. government's official web portal to all federal, state and local government web resources and services.